Weather History for Kalispell, MT

Change the Weather History Date:

Thursday, May 29, 2014

  Actual Average Record
Temperature  
Mean Temperature 50 °F 55 °F  
Max Temperature 62 °F 68 °F 94 °F (1986)
Min Temperature 37 °F 42 °F 28 °F (1951)
Degree Days  
Heating Degree Days 15 10  
Month to date heating degree days 377 393  
Since 1 July heating degree days 7927 7804  
Cooling Degree Days 0 0  
Month to date cooling degree days 0 0  
Year to date cooling degree days 0 0  
Growing Degree Days 2 (Base 50)    
Moisture  
Dew Point 35 °F    
Average Humidity 57    
Maximum Humidity 79    
Minimum Humidity 34    
Precipitation  
Precipitation 0.00 in 0.09 in 0.53 in (1938)
Month to date precipitation 1.20 1.81  
Year to date precipitation 7.25 6.44  
Snow  
Snow 0.00 in - - ()
Month to date snowfall T  
Year to date snowfall 38.2  
Since 1 July snowfall 71.7  
Snow Depth 0.00 in    
Sea Level Pressure  
Sea Level Pressure 30.11 in    
Wind  
Wind Speed 10 mph (SSW)    
Max Wind Speed 21 mph    
Max Gust Speed 27 mph    
Visibility 10 miles    
Events      
T = Trace of Precipitation, MM = Missing Value Source: NWS Daily Summary

Daily Weather History Graph

Daily Weather History Graph

Search for Another Location

Airport:

Trip Planner

Search our weather history database for the weather conditions in past years. The results will help you decide how hot, cold, wet, or windy it might be!

Date:

Astronomy

May. 29, 2014 Rise Set
Actual Time 5:42 AM MDT 9:27 PM MDT
Civil Twilight 5:02 AM MDT 10:06 PM MDT
Nautical Twilight 4:08 AM MDT 11:01 PM MDT
Astronomical Twilight 2:50 AM MDT 12:20 AM MDT
Moon 6:44 AM MDT (5/29) 10:15 PM MDT (5/29)
Length of Visible Light 17h 04m
Length of Day
15h 44m
New Moon, 1% of the Moon is Illuminated
May 29
New Moon
Jun 5
First Quarter
Jun 12
Full
Jun 19
Last Quarter
Jun 27
New

Hourly Weather History & Observations

Time (MDT) Temp. Windchill Dew Point Humidity Pressure Visibility Wind Dir Wind Speed Gust Speed Precip Events Conditions
12:55 AM 48.0 °F - 35.1 °F 61% 30.05 in 10.0 mi SSW 11.5 mph - N/A   Partly Cloudy
1:55 AM 48.0 °F - 35.1 °F 61% 30.06 in 10.0 mi SSE 8.1 mph - N/A   Overcast
2:55 AM 44.1 °F 40.8 °F 36.0 °F 73% 30.07 in 10.0 mi SW 5.8 mph - N/A   Scattered Clouds
3:55 AM 43.0 °F 38.8 °F 35.1 °F 74% 30.06 in 10.0 mi South 6.9 mph - N/A   Partly Cloudy
4:55 AM 44.1 °F 40.8 °F 35.1 °F 71% 30.07 in 10.0 mi South 5.8 mph - N/A   Mostly Cloudy
5:55 AM 42.1 °F 38.4 °F 36.0 °F 79% 30.08 in 10.0 mi SSW 5.8 mph - N/A   Mostly Cloudy
6:55 AM 46.0 °F 41.9 °F 37.0 °F 71% 30.08 in 10.0 mi South 8.1 mph - N/A   Overcast
7:55 AM 46.9 °F - 37.0 °F 68% 30.09 in 10.0 mi South 9.2 mph - N/A   Overcast
8:55 AM 48.9 °F - 37.0 °F 64% 30.11 in 10.0 mi SSW 5.8 mph - N/A   Overcast
9:55 AM 51.1 °F - 36.0 °F 56% 30.12 in 10.0 mi SSW 13.8 mph - N/A   Mostly Cloudy
10:55 AM 52.0 °F - 36.0 °F 54% 30.12 in 10.0 mi SSW 13.8 mph 20.7 mph N/A   Overcast
11:55 AM 53.1 °F - 35.1 °F 50% 30.14 in 10.0 mi WSW 10.4 mph - N/A   Overcast
12:55 PM 55.9 °F - 36.0 °F 47% 30.13 in 10.0 mi SSW 18.4 mph 26.5 mph N/A   Overcast
1:55 PM 60.1 °F - 35.1 °F 39% 30.12 in 10.0 mi WSW 16.1 mph - N/A   Partly Cloudy
2:55 PM 59.0 °F - 33.8 °F 39% 30.12 in 10.0 mi West 13.8 mph 20.7 mph N/A   Mostly Cloudy
3:55 PM 62.6 °F - 33.8 °F 34% 30.12 in 10.0 mi SSW 15.0 mph - N/A   Partly Cloudy
4:55 PM 59.0 °F - 34.0 °F 39% 30.13 in 10.0 mi SSW 18.4 mph 23.0 mph N/A   Overcast
5:55 PM 59.0 °F - 34.0 °F 39% 30.14 in 10.0 mi SW 11.5 mph - N/A   Overcast
6:55 PM 61.0 °F - 35.1 °F 38% 30.13 in 10.0 mi WSW 13.8 mph - N/A   Overcast
7:55 PM 60.1 °F - 33.1 °F 36% 30.13 in 10.0 mi SW 11.5 mph - N/A   Overcast
8:55 PM 55.0 °F - 35.1 °F 47% 30.15 in 10.0 mi SW 6.9 mph - N/A   Mostly Cloudy
9:55 PM 48.0 °F - 35.1 °F 61% 30.16 in 10.0 mi SW 6.9 mph - N/A   Clear
10:55 PM 42.1 °F 39.2 °F 36.0 °F 79% 30.18 in 10.0 mi SW 4.6 mph - N/A   Clear
11:55 PM 41.0 °F - 36.0 °F 82% 30.18 in 10.0 mi Calm Calm - N/A   Clear